SCP
0 0 0 0 0 0 0 0 0 0 0 0 0 0 0 0 0 0 0 0 0 0 0 0 0 0 0 0 0 0 0 0 0 0 0 0 0 0 0 0 0 0 0
0 0 0 0 0 0 0 0 0 0 0 0 0 0 0 0 0 0 0 0 0 0 0 0 0 0 0 0 0 0 0 0 0 0 0 0 0 0 0 0 0 0 0
0 0 0 0 0 0 0 0 0 0 0 0 0 0 0 0 0 0 0 0 0 0 0 0 0 0 0 0 0 0 0 0 0 0 0 0 0 0 0 0 0 0 0
0 0 0 0 0 0 0 0 0 0 0 0 0 0 0 0 0 0 0 0 0 0 0 0 0 0 0 0 0 0 0 0 0 0 0 0 0 0 0 0 0 0 0
0 0 0 0 0 0 0 0 0 0 0 0 0 0 0 0 0 0 0 0 0 0 0 0 0 0 0 0 0 0 0 0 0 0 0 0 0 0 0 0 0 0 0
0 0 0 0 0 0 0 0 0 0 0 0 0 0 0 0 0 0 0 0 0 0 0 0 0 0 0 0 0 0 0 0 0 0 0 0 0 0 0 0 0 0 0
0 0 0 0 0 0 0 0 0 0 0 0 0 0 0 0 0 0 0 0 0 0 0 0 0 0 0 0 0 0 0 0 0 0 0 0 0 0 0 0 0 0 0
0 0 0 0 0 0 0 0 0 0 0 0 0 0 0 0 0 0 0 0 0 0 0 0 0 0 0 0 0 0 0 0 0 0 0 0 0 0 0 0 0 0 0
0 0 0 0 0 0 0 0 0 0 0 0 0 0 0 0 0 0 0 0 0 0 0 0 0 0 0 0 0 0 0 0 0 0 0 0 0 0 0 0 0 0 0
0 0 0 0 0 0 0 0 0 0 0 0 0 0 0 0 0 0 0 0 0 0 0 0 0 0 0 0 0 0 0 0 0 0 0 0 0 0 0 0 0 0 0
0 0 0 0 0 0 0 0 0 0 0 0 0 0 0 0 0 0 0 0 0 0 0 0 0 0 0 0 0 0 0 0 0 0 0 0 0 0 0 0 0 0 0
0 0 0 0 0 0 0 0 0 0 0 0 0 0 0 0 0 0 0 0 0 0 0 0 0 1 1 1 1 1 1 1 0 0 0 0 0 0 0 0 0 0 0
0 0 0 0 0 0 0 0 0 1 1 1 0 0 0 0 0 0 0 0 0 0 0 0 1 1 1 1 1 1 1 1 0 0 0 0 0 0 0 0 0 0 1
0 0 0 0 0 0 0 0 0 0 0 0 0 0 1 1 0 0 0 0 0 0 0 1 1 1 1 1 1 1 0 0 0 0 0 0 0 0 0 0 0 1 1
1 0 0 0 0 0 0 0 0 0 0 0 0 0 1 1 1 1 1 0 0 0 0 0 1 1 1 1 1 0 0 0 0 0 0 0 0 0 0 0 0 1 1
1 1 0 0 0 0 0 0 0 0 0 0 0 0 1 1 1 1 0 0 0 0 0 0 0 0 0 0 0 0 0 0 0 0 0 0 0 0 0 0 1 1 1
1 1 1 1 1 0 0 0 0 0 0 0 0 0 0 1 1 0 0 0 0 0 0 0 0 0 0 0 0 0 0 0 0 0 0 0 0 0 0 0 1 1 1
0 0 0 0 0 0 0 0 0 0 0 0 0 0 0 0 0 0 0 0 0 0 0 0 0 0 0 0 0 0 0 0 0 0 0 0 0 0 0 0 1 1 1
0 0 0 0 0 0 0 0 0 0 0 0 0 0 0 0 0 0 0 0 0 0 0 0 0 0 0 0 0 0 0 0 0 0 0 0 0 0 0 0 1 1 1
0 0 0 0 0 0 0 0 0 0 0 0 0 0 0 0 0 0 0 0 0 0 0 0 0 0 0 0 0 0 0 0 0 0 0 0 0 0 0 0 0 1 1
0 0 0 0 0 0 0 0 0 0 0 0 0 0 0 0 0 0 0 0 0 0 0 0 0 0 0 0 0 0 0 0 0 0 0 0 0 0 0 0 0 0 0
0 0 0 0 0 0 0 0 0 0 0 0 0 0 0 0 0 0 0 0 0 0 0 0 0 0 0 0 0 0 0 0 0 0 0 0 0 0 0 0 0 0 0
0 0 0 0 0 0 0 0 0 0 0 0 0 0 0 0 0 0 0 0 0 0 0 0 0 0 0 0 0 0 0 0 0 0 0 0 0 0 0 0 0 0 0
0 0 0 0 0 0 0 0 0 0 0 0 0 0 0 0 0 0 0 0 0 0 0 0 0 0 0 0 0 0 0 0 0 0 0 0 0 0 0 0 0 0 0
0 0 0 0 0 0 0 0 0 0 0 0 0 0 0 0 0 0 0 0 0 0 0 0 0 0 0 0 0 0 0 0 0 0 0 0 0 0 0 0 0 0 0
0 0 0 0 0 0 0 0 0 0 0 0 0 0 0 0 0 0 0 0 0 0 0 0 0 0 0 0 0 0 0 0 0 0 0 0 0 0 0 0 0 0 0
Wind_Speed
7 8 16 17 17 18 18 18 18 18 18 17 17 17 16 16 15 15 14 12 11 10 9 8 8 8 8 9 10 10 11 11 12 11 11 12 12 12 13 14 14 11 15
11 11 17 17 17 18 18 18 17 17 17 17 16 16 16 15 15 14 13 12 11 10 9 8 8 8 8 8 9 10 10 11 11 10 11 11 12 12 13 14 13 10 15
13 10 14 16 17 17 17 17 17 17 17 16 16 15 15 14 14 13 12 11 10 10 9 8 8 8 8 8 8 9 10 10 9 9 9 6 8 11 12 13 13 14 14
12 9 10 16 16 17 17 17 17 16 16 15 15 14 14 13 13 12 11 11 10 9 9 8 7 7 7 7 7 8 8 8 8 9 5 5 5 10 11 12 13 13 14
10 8 11 18 16 16 16 16 16 15 15 14 14 13 13 12 12 11 11 10 9 9 8 8 7 7 7 7 7 7 7 7 7 6 3 3 3 10 12 12 12 13 13
10 7 11 17 16 15 15 15 15 14 14 13 13 12 12 11 11 10 9 9 9 8 8 7 7 7 6 6 6 6 6 6 6 4 2 2 3 9 12 12 12 13 13
10 6 9 16 15 14 14 14 13 13 13 12 12 11 11 11 10 9 9 8 8 8 7 7 7 6 6 6 6 6 5 5 4 3 3 3 4 8 11 12 12 12 13
10 7 8 14 15 14 13 13 13 12 12 11 11 11 11 10 10 9 9 8 8 8 8 7 7 7 7 6 6 6 5 5 3 3 3 4 7 9 11 12 12 12 13
7 6 5 6 9 12 12 12 12 11 11 11 11 11 10 10 10 10 9 9 9 9 8 8 8 8 8 7 7 7 6 6 3 2 3 4 8 11 13 13 13 13 13
6 5 4 4 4 4 6 10 11 11 10 10 10 10 10 10 10 10 9 9 10 10 10 10 10 10 10 9 9 8 8 6 3 3 2 4 10 13 14 14 14 14 14
7 4 4 4 4 3 3 6 8 9 9 8 8 10 9 4 4 5 8 10 11 11 11 11 11 11 11 10 11 10 8 3 4 3 3 7 10 13 15 15 16 16 15
8 6 3 3 3 2 2 2 1 2 2 3 2 3 2 2 3 5 6 11 12 12 12 12 12 11 9 5 7 9 4 5 5 5 5 10 12 13 15 16 17 17 17
6 6 4 3 3 2 1 1 1 1 1 2 3 3 2 2 2 3 2 4 5 7 5 6 7 5 5 4 4 4 5 5 4 5 6 12 13 14 16 16 17 18 18
5 4 5 4 3 2 2 1 1 1 2 2 3 3 2 2 2 2 2 2 2 2 3 3 3 5 6 6 6 7 8 6 5 5 6 13 14 15 16 17 18 19 19
5 4 4 4 3 2 1 1 0 1 2 2 2 2 3 3 3 2 2 2 2 2 3 3 3 4 5 6 6 8 8 8 8 7 5 13 15 15 16 17 18 20 20
5 4 4 4 4 3 2 1 0 0 0 0 1 1 3 2 2 2 2 2 2 2 2 2 3 3 3 4 6 7 8 7 8 8 7 9 15 15 16 17 17 19 20
4 4 4 5 4 4 3 2 1 1 1 1 0 1 1 1 1 1 1 2 2 2 2 1 2 2 3 4 6 7 7 7 8 8 8 6 7 13 16 17 16 16 18
5 4 3 4 4 3 2 2 1 1 1 0 0 0 1 0 1 1 1 2 1 1 1 1 1 2 3 4 5 6 6 6 8 8 8 8 7 7 11 17 17 17 18
4 5 4 4 4 4 3 2 2 1 1 1 1 1 1 1 0 0 1 2 1 1 1 2 1 2 3 4 5 5 6 6 7 8 9 10 10 9 8 11 16 17 19
4 4 4 4 4 3 2 2 2 2 2 1 1 1 1 1 1 0 1 1 1 1 1 2 2 2 3 4 5 6 6 7 7 8 9 9 9 11 10 10 9 11 17
3 3 3 3 3 2 1 1 1 1 1 1 1 2 2 2 2 1 1 1 1 1 2 2 2 2 2 2 2 4 5 7 8 7 7 7 9 10 10 11 9 7 7
3 4 3 3 2 2 1 1 1 1 0 0 1 2 2 2 2 2 1 2 2 2 3 3 2 1 2 1 1 2 4 4 3 5 5 6 7 7 9 11 10 9 8
4 4 4 3 2 2 2 2 2 2 2 2 2 2 2 3 3 2 2 2 2 2 3 3 3 3 2 2 3 2 2 3 4 3 3 4 5 5 7 8 10 10 10
5 4 3 3 2 2 2 2 2 1 1 2 1 2 4 3 3 3 3 3 3 2 3 3 3 3 3 3 2 3 4 3 3 4 3 3 4 6 7 7 8 10 10
4 4 4 3 3 2 1 2 1 1 2 2 2 3 4 4 4 4 3 3 3 3 3 4 3 3 3 3 3 2 3 3 4 4 5 4 4 4 5 6 6 6 8
2 3 3 3 2 2 1 1 2 3 3 3 4 4 4 3 4 4 4 3 3 3 4 4 3 4 4 4 4 3 3 2 3 3 4 5 5 4 4 4 4 5 6
Wind_Direction
150 155 153 148 141 135 129 125 123 122 121 122 125 130 135 139 143 145 146 146 145 142 135 125 116 110 108 108 109 110 111 115 119 119 121 121 121 121 121 120 117 117 118
143 152 153 149 143 137 132 129 127 127 126 127 129 132 136 140 143 146 148 149 148 145 138 130 123 119 116 116 116 118 119 122 125 125 126 125 126 126 125 123 122 126 124
141 149 151 149 144 140 136 133 132 132 132 133 135 137 141 144 146 148 150 151 151 148 143 136 131 128 126 125 124 125 127 129 128 124 115 116 129 131 130 128 130 129 127
140 142 148 149 146 143 140 138 137 137 137 139 141 143 145 148 150 152 154 155 155 153 148 145 142 139 136 134 134 133 133 133 130 118 102 116 133 139 138 136 135 133 132
135 137 154 152 150 148 144 142 140 140 142 144 147 149 151 153 156 158 160 161 161 158 156 155 153 149 147 146 144 143 142 141 134 114 104 103 121 148 147 144 143 141 139
132 138 157 154 154 152 150 147 146 146 148 151 155 157 159 161 164 166 168 170 168 167 166 165 164 162 161 160 160 160 159 160 132 114 120 125 137 158 156 154 152 149 146
134 139 155 155 156 156 155 154 153 154 157 160 164 167 169 172 175 176 178 182 183 179 179 178 178 176 178 179 180 181 185 186 140 141 156 167 176 174 168 165 161 157 155
138 137 149 157 159 161 162 162 162 164 167 171 175 179 183 185 187 189 191 196 200 197 196 194 192 192 194 196 199 201 207 213 187 178 181 185 193 191 183 177 172 168 166
127 127 134 150 160 165 169 171 172 175 177 181 186 190 194 198 199 200 203 208 212 210 208 208 207 206 207 210 213 217 222 227 199 186 204 191 203 201 196 189 183 179 176
119 117 118 122 130 148 168 179 181 184 186 190 195 199 205 209 209 211 210 216 221 219 216 219 220 219 218 218 221 225 229 234 219 212 215 210 212 209 206 199 193 189 185
144 125 120 121 118 126 157 190 188 193 198 202 207 212 213 217 220 225 225 225 231 230 228 230 230 230 229 228 228 229 232 216 210 219 219 225 223 219 214 207 200 197 194
165 157 135 126 121 127 180 180 178 196 198 200 203 230 219 207 226 234 242 242 242 241 240 240 240 238 237 229 235 237 228 218 216 222 225 231 230 228 222 214 206 202 200
158 160 151 135 129 148 187 176 190 205 204 202 204 212 215 220 238 247 249 263 264 261 255 253 251 240 228 221 223 227 231 229 227 230 230 234 232 230 228 221 212 207 205
144 158 153 148 155 187 222 221 202 215 220 219 215 209 203 215 225 235 241 251 256 261 258 252 244 244 238 234 232 234 236 234 232 229 234 241 236 232 230 226 218 213 209
135 138 140 146 159 176 214 276 242 252 253 259 246 228 218 214 219 219 238 244 253 257 254 254 253 251 249 246 241 240 241 237 235 228 232 243 239 233 232 232 226 219 214
112 115 117 120 130 128 127 118 185 211 154 342 296 257 233 224 219 216 235 244 250 254 252 248 256 256 255 252 252 249 247 244 242 234 231 241 242 237 233 232 231 225 218
106 106 111 117 110 113 121 134 124 52 63 95 267 276 251 211 194 197 221 243 250 254 262 271 276 273 270 263 261 260 255 247 245 238 236 234 238 240 235 231 231 225 221
115 113 116 120 115 114 115 108 95 78 65 56 56 6 360 318 187 184 223 247 258 268 268 262 260 273 269 267 265 263 258 253 251 246 241 238 234 239 237 232 229 225 224
130 128 125 123 129 129 122 118 106 84 60 29 47 46 19 2 280 193 248 263 273 278 276 277 251 244 266 272 269 261 255 251 249 249 244 240 236 234 231 233 230 225 225
140 137 136 135 138 128 112 96 71 60 44 41 41 35 37 14 11 10 278 290 300 288 284 279 273 255 257 271 282 279 265 254 247 243 243 241 237 235 231 231 228 228 228
147 147 152 151 152 136 121 120 102 63 20 23 24 33 28 15 4 349 319 312 298 268 267 267 262 274 274 272 289 293 279 257 248 244 239 237 238 237 232 227 222 219 223
186 183 176 176 171 165 145 139 138 129 48 342 349 6 9 2 346 337 320 299 289 278 282 267 236 249 267 246 249 301 310 312 290 252 241 237 240 238 236 232 224 220 220
207 204 190 189 183 172 143 106 73 50 18 358 348 334 333 340 333 327 313 294 285 264 265 262 232 222 244 260 223 232 275 291 312 294 261 249 246 241 241 235 227 222 220
215 200 194 191 193 189 159 147 154 172 241 254 267 292 309 314 312 308 301 295 286 272 264 262 237 218 217 243 254 235 237 251 281 307 303 278 267 257 250 243 236 225 220
198 189 189 186 202 204 184 170 176 225 242 273 292 299 303 306 305 297 290 287 282 273 266 262 257 233 220 225 228 239 250 250 243 260 288 302 297 270 258 247 240 230 221
187 180 176 181 212 216 210 209 218 246 264 283 289 291 291 293 296 291 286 274 271 265 264 261 252 243 235 234 233 228 228 239 248 251 272 292 296 288 277 259 244 236 227